Theta_e
328 327 324 323 324 326 327 327 328 327 328 330 326 324 321 319 321 329 338 342 345 338 337 344 342 346 350 351 355 350 352 354 352 352 352 351 351 352 353 353 355 355 353 358 361 362 361 361 361 361 360 360 359 359 360 360 359 360 359 359 357 355 356 357 358 359 360 358 355 356 356 355 354 354 353 352 355 356 356 358 355 349 346 345 343 345
327 324 323 327 327 328 327 328 328 327 329 328 325 321 319 319 323 331 340 343 345 337 337 349 346 346 350 350 354 354 352 351 351 352 352 351 352 351 353 352 354 354 353 358 362 362 362 360 361 361 360 360 361 360 360 359 358 360 359 359 358 357 358 358 357 358 358 356 354 353 354 354 350 350 352 351 350 351 352 354 354 351 348 346 344 346
324 323 325 328 328 328 329 328 328 328 328 327 325 320 316 320 327 334 340 344 344 335 338 350 346 347 354 352 355 355 350 350 350 350 351 351 352 351 352 353 352 354 356 358 360 361 361 360 361 362 360 360 360 360 360 360 359 360 360 359 359 359 360 358 356 357 357 356 353 350 352 353 349 347 349 346 342 346 348 350 353 352 350 347 343 342
316 322 328 328 327 328 328 328 327 327 328 326 323 317 314 322 325 322 333 346 346 337 339 350 345 348 359 356 357 355 350 353 353 353 354 352 353 352 350 351 353 354 358 358 357 357 360 360 362 361 361 360 359 358 358 359 360 361 361 360 360 360 360 358 356 356 355 354 352 349 348 347 345 343 342 342 341 341 343 345 349 350 349 348 346 344
320 324 328 327 326 329 327 327 329 325 323 325 326 320 317 324 325 321 334 346 344 340 346 347 334 339 354 353 352 354 355 356 353 354 357 354 355 354 351 351 353 352 356 358 355 355 358 359 359 360 361 359 358 358 356 356 360 361 361 360 359 359 358 356 354 352 349 348 347 345 342 340 341 340 340 341 339 338 340 340 342 344 345 346 346 345
325 326 327 328 327 328 327 327 328 325 320 319 325 327 324 327 327 328 342 340 328 327 342 342 321 323 342 347 347 350 354 354 353 353 354 356 356 356 357 355 356 355 354 355 355 356 357 357 359 360 359 359 358 358 357 358 360 361 360 359 358 356 355 353 351 348 344 343 343 341 339 338 339 338 340 340 338 338 339 339 339 341 343 346 346 344
327 327 327 328 327 329 328 325 328 328 319 315 323 330 329 331 330 334 340 329 316 318 338 343 322 316 327 340 349 350 352 353 353 354 351 354 356 355 356 356 357 357 355 355 356 356 357 357 358 360 359 359 357 357 359 360 361 361 359 357 355 353 351 349 348 344 342 342 343 340 339 339 338 338 339 340 339 339 338 338 339 339 342 346 346 345
329 327 327 328 328 328 326 324 328 330 319 316 329 331 329 332 335 337 334 322 319 325 338 344 330 318 317 330 348 352 352 352 354 355 353 352 354 353 353 353 355 357 356 356 357 356 357 357 359 359 359 358 357 358 359 359 359 359 357 355 352 350 347 346 344 343 342 342 342 341 341 341 340 339 339 338 339 340 338 338 339 339 340 343 345 345
329 327 327 329 327 325 325 325 329 329 323 325 336 335 333 338 336 336 330 322 326 328 324 331 333 321 314 325 347 352 350 352 353 355 354 352 354 353 351 351 353 356 356 355 354 356 358 359 360 359 358 357 356 358 357 357 357 356 355 351 348 346 345 343 343 344 345 343 343 342 342 342 342 340 338 337 338 340 339 339 340 340 340 341 342 343
329 328 328 328 327 327 327 329 329 328 329 333 339 338 338 339 336 337 330 323 325 321 315 320 325 319 313 321 337 343 344 348 353 354 352 353 354 355 353 350 352 355 357 356 355 356 358 358 359 358 356 357 357 357 356 355 355 353 350 347 345 344 343 342 343 345 345 343 342 342 342 341 340 340 338 336 338 340 340 340 340 340 339 340 340 340
327 328 329 329 328 328 328 327 327 327 332 335 337 337 335 337 338 335 331 325 319 316 315 317 321 319 314 316 326 338 344 347 349 351 352 353 354 356 354 351 352 355 359 357 355 356 358 358 359 358 356 358 356 354 353 354 352 349 347 345 344 342 341 343 344 344 342 341 341 340 340 339 338 337 336 336 337 338 338 339 339 340 339 339 339 338
328 327 328 328 327 328 328 328 327 330 333 333 334 331 325 326 327 323 323 323 317 314 317 319 323 321 314 316 324 336 345 346 345 346 351 353 352 356 356 353 352 356 357 358 355 355 356 359 362 359 357 357 355 351 351 351 348 347 345 343 343 342 343 345 344 343 341 340 340 339 338 339 338 337 336 335 336 337 337 338 338 338 339 339 339 338
325 327 329 327 326 328 329 326 327 329 331 331 328 322 315 315 316 315 315 316 313 313 320 323 323 319 316 322 331 335 338 345 346 344 348 352 353 355 358 354 353 355 356 357 356 355 357 360 362 359 358 358 353 350 350 348 345 345 344 341 342 344 344 343 341 341 339 339 340 339 338 338 338 338 337 336 335 336 337 337 337 337 338 338 338 338
318 326 329 326 326 328 328 323 319 322 325 326 321 316 312 313 314 314 314 313 313 313 319 325 324 317 315 324 334 338 338 343 347 345 344 349 352 356 358 356 355 355 356 354 355 356 356 361 360 358 359 357 352 350 350 347 345 344 342 340 342 342 342 340 339 338 336 337 338 338 338 339 339 337 336 336 335 335 336 337 337 337 337 337 337 337
312 317 323 326 326 326 329 325 322 324 325 326 326 322 314 313 313 312 313 312 312 314 318 323 321 313 313 327 342 346 345 345 346 348 347 349 352 354 355 356 353 355 356 355 355 356 358 361 360 359 359 355 352 350 349 348 345 343 341 341 341 341 340 340 339 338 336 337 338 338 338 339 339 337 335 336 336 336 336 336 337 337 337 337 336 336
311 313 325 328 326 328 327 328 329 328 323 325 330 324 315 317 316 313 313 313 312 313 316 318 317 316 322 336 344 343 344 345 345 347 348 350 352 353 354 356 353 355 355 354 354 355 358 361 359 357 358 355 351 350 349 348 345 343 342 342 341 341 341 340 340 340 339 338 339 339 339 338 337 337 335 335 335 335 336 336 337 337 336 336 336 335
311 314 329 329 326 329 327 327 330 326 321 323 322 317 320 327 323 314 313 315 313 311 314 316 316 319 323 330 335 338 339 341 345 346 345 348 350 352 355 357 355 355 355 353 355 356 358 360 358 357 355 352 350 348 348 349 346 343 343 343 342 341 342 342 342 341 341 340 339 339 339 337 336 335 335 334 333 333 335 336 336 335 335 335 334 334
316 314 326 330 326 328 328 326 329 327 326 323 316 318 326 327 325 320 314 315 314 312 314 315 313 314 314 319 332 339 336 334 342 348 347 346 349 352 356 358 358 357 354 354 355 357 358 359 357 354 351 349 348 347 349 349 346 343 344 342 342 342 343 342 342 341 341 341 339 338 338 337 335 335 334 333 332 333 335 336 335 335 334 334 334 334
322 314 320 332 329 326 329 325 324 326 329 325 322 326 325 316 316 318 315 314 314 312 313 313 313 313 311 316 326 333 334 334 339 348 350 346 349 351 353 358 360 358 355 354 353 355 356 356 354 350 347 347 347 348 350 349 346 344 343 342 341 342 342 342 342 341 341 341 338 337 337 335 335 335 334 333 332 333 335 335 335 335 334 334 334 334
325 315 315 327 330 326 328 323 317 320 326 327 326 329 326 319 317 317 316 314 313 312 312 312 313 312 315 323 327 330 333 333 336 348 353 348 347 352 353 357 360 360 357 353 352 354 355 353 349 346 345 345 346 349 349 346 343 341 342 343 342 341 342 342 342 341 341 340 338 337 337 335 335 335 334 333 332 332 334 334 334 334 334 334 333 333
329 319 313 323 329 323 321 323 320 321 323 322 320 320 321 322 321 320 318 315 312 312 312 313 311 311 320 333 332 331 334 332 335 344 351 351 348 351 354 357 359 360 357 352 352 353 352 350 346 343 345 345 346 349 346 343 341 338 340 343 342 341 342 341 340 340 340 339 337 338 336 336 335 335 334 332 332 332 333 334 334 333 333 334 334 333
325 321 314 316 319 316 319 328 330 328 328 325 321 320 320 321 318 316 316 315 314 312 311 313 312 311 324 338 333 331 334 332 335 340 345 351 350 351 356 356 358 360 356 352 350 349 349 349 346 344 344 345 347 348 342 340 340 337 338 340 339 339 338 338 338 339 339 338 337 337 336 335 335 334 333 332 332 333 332 332 333 333 333 333 333 333
328 326 316 313 318 322 325 331 329 328 331 330 326 326 327 325 317 312 313 314 314 313 314 314 312 315 332 345 336 339 345 343 344 347 347 349 349 354 355 355 358 360 356 352 349 348 350 349 346 345 347 347 348 346 341 340 339 338 339 338 338 338 336 334 336 338 340 338 337 337 337 335 335 334 332 332 332 331 331 330 330 331 332 333 332 332
330 327 316 313 322 327 329 330 329 329 330 327 326 330 328 325 322 319 319 319 316 314 314 314 311 317 337 351 345 346 350 347 346 349 351 350 351 354 356 357 360 361 358 353 350 351 351 350 349 350 351 352 350 346 343 343 340 340 340 338 338 338 336 336 336 337 338 339 337 337 337 336 335 333 331 331 331 330 329 329 329 329 331 332 332 333
323 323 318 314 316 319 320 324 324 325 327 325 326 329 328 328 328 327 326 324 317 313 315 315 311 316 336 350 347 345 344 340 339 343 349 353 352 354 357 358 360 361 361 357 355 353 353 353 354 354 354 354 352 349 347 347 346 344 342 340 337 336 337 337 337 337 337 337 337 337 337 336 335 333 332 331 331 330 329 329 329 329 330 331 332 333
322 327 323 313 312 314 314 315 316 319 325 324 326 329 329 330 328 324 321 317 314 316 317 314 312 318 334 346 342 340 339 336 336 338 343 351 353 356 358 360 361 364 363 360 357 355 355 357 358 357 356 354 353 351 351 350 349 346 345 342 337 335 337 338 338 338 336 335 335 336 336 335 334 333 331 331 331 330 330 330 330 329 329 329 329 329
330 334 329 319 315 315 315 319 324 325 322 319 322 326 328 329 329 326 319 314 317 320 317 318 320 319 327 337 337 336 335 334 336 336 340 349 354 355 359 361 361 364 363 361 359 356 358 360 359 359 357 354 352 351 352 352 349 346 346 345 340 338 338 339 339 339 337 335 335 336 335 335 333 332 331 330 331 330 331 330 329 329 329 328 327 327
333 327 329 328 323 323 326 329 332 329 322 320 321 324 327 329 329 325 318 319 327 320 312 325 333 322 323 334 335 334 336 335 334 335 338 346 354 355 358 360 360 361 362 361 359 357 359 359 358 359 357 353 353 351 350 350 347 347 348 345 340 339 338 338 339 340 338 336 336 337 335 334 332 332 331 331 330 330 331 331 330 330 329 328 327 327
331 321 326 328 325 329 334 332 331 329 326 325 326 325 326 328 326 323 322 327 332 320 315 332 340 328 330 336 333 334 336 333 333 337 336 342 349 353 355 358 358 359 359 360 359 358 358 358 358 359 357 354 353 352 350 348 347 349 347 343 341 339 339 339 340 340 338 337 338 337 335 334 333 331 331 330 330 331 331 331 331 330 328 327 326 326
330 325 334 331 323 328 332 331 332 329 326 325 326 327 328 328 327 326 326 330 333 326 326 336 338 335 336 335 333 335 333 332 336 339 338 339 342 347 352 355 355 356 357 358 358 358 357 358 358 359 358 355 353 351 350 348 349 348 344 340 341 339 338 339 341 341 338 337 338 337 335 334 333 331 331 331 331 332 332 331 330 329 328 327 326 326
329 329 339 332 322 324 330 331 330 329 326 324 324 329 330 327 327 327 327 331 332 330 333 335 331 333 334 334 336 337 333 334 336 335 335 338 341 344 350 352 353 354 354 355 356 357 357 357 357 359 358 356 353 351 349 348 347 344 340 336 338 338 338 340 341 341 339 338 338 336 334 333 333 332 332 331 332 332 332 331 330 328 327 327 327 327
331 333 338 331 318 318 326 328 327 328 327 322 322 327 327 325 326 327 329 333 330 329 332 329 324 328 333 333 334 334 333 334 333 332 335 341 343 344 345 349 352 352 353 354 355 356 356 356 357 357 357 355 352 348 346 345 344 341 338 336 336 337 337 341 341 339 338 338 338 336 334 333 332 332 331 331 332 332 332 331 330 328 327 327 327 327
334 333 332 325 316 316 324 327 325 324 320 317 321 328 328 328 328 328 331 335 334 331 328 324 324 329 332 332 332 332 331 331 334 338 341 343 345 346 346 348 350 351 353 353 354 354 355 355 356 355 354 353 348 344 342 341 340 340 337 336 336 337 337 340 339 337 337 338 336 335 334 332 332 331 331 332 331 332 332 330 329 328 327 326 326 326
338 334 330 326 318 315 323 327 324 319 315 318 329 333 331 331 330 328 329 333 335 333 329 328 329 332 331 330 331 331 332 335 338 343 344 343 343 345 347 347 347 351 352 351 352 353 353 354 355 354 353 351 344 339 337 336 338 339 337 335 336 338 340 340 337 335 336 336 335 335 333 332 332 332 331 332 332 333 332 330 328 328 326 325 325 326
336 332 331 329 320 318 324 324 318 315 319 328 337 336 333 332 332 331 332 332 332 332 331 331 331 331 331 331 330 333 337 340 342 343 345 343 341 343 345 345 347 349 349 351 351 351 352 355 355 353 352 345 338 336 336 337 339 338 336 334 336 338 340 338 335 335 336 334 333 333 333 332 332 332 333 333 333 334 333 329 327 327 326 326 325 325
337 333 330 328 324 322 321 317 316 320 330 337 337 335 333 334 333 330 328 331 332 332 333 333 332 331 332 330 331 338 342 342 341 343 346 345 343 343 342 344 345 346 348 350 350 351 354 355 354 353 351 344 338 337 336 337 337 336 334 335 336 337 337 336 334 335 335 333 332 332 332 332 332 333 334 334 333 334 332 327 326 326 325 326 326 326
336 335 329 323 325 324 316 313 318 324 328 332 334 335 334 332 334 329 325 328 333 332 332 333 332 330 329 330 335 341 343 341 340 343 345 343 342 342 341 342 343 344 347 348 349 353 354 353 353 353 349 344 341 338 337 338 337 335 333 334 335 335 334 333 334 334 333 332 331 331 332 333 332 332 332 332 333 333 330 327 325 325 326 327 327 325
335 339 335 324 323 324 316 314 318 318 318 325 331 335 334 329 332 333 326 326 331 332 331 331 331 330 329 333 340 344 343 338 335 337 340 339 339 340 340 341 342 344 347 347 349 353 353 352 352 348 342 341 340 339 339 338 336 335 335 335 334 333 332 333 334 333 332 331 331 331 332 333 332 331 331 332 332 331 328 326 325 325 327 327 325 325
333 338 339 327 321 322 318 315 316 315 317 326 333 336 334 330 332 332 324 321 328 332 331 329 330 331 329 332 342 345 339 331 330 333 339 339 339 339 341 343 343 345 348 347 350 353 352 352 350 342 338 342 342 340 342 340 337 336 337 336 333 332 331 331 332 331 330 330 331 331 332 332 331 331 331 331 331 329 328 328 326 326 328 327 325 326
331 333 333 323 317 319 318 315 315 316 322 333 335 333 330 331 331 327 318 319 328 332 331 329 329 330 329 334 342 342 335 330 333 336 339 340 340 340 343 345 344 346 348 348 350 352 350 351 351 344 341 344 344 343 345 344 338 337 337 336 334 331 330 332 332 331 329 329 330 332 333 332 330 331 331 329 330 331 329 328 327 326 328 327 324 325
329 328 327 321 316 317 318 315 314 318 329 338 333 329 330 331 327 320 318 325 332 331 330 330 329 328 331 338 340 335 333 337 340 339 340 340 341 342 344 345 346 347 348 347 348 349 349 349 350 346 344 344 343 344 347 346 342 340 338 337 335 332 331 332 331 329 329 332 333 333 332 331 330 330 329 328 330 333 331 328 327 327 328 328 327 327
325 325 324 321 318 316 318 317 315 319 331 335 330 329 330 326 321 322 329 335 334 330 331 331 329 328 330 336 338 334 334 340 340 340 340 341 343 344 343 344 346 346 346 345 346 348 349 349 348 344 342 341 340 343 349 349 347 344 343 341 338 334 331 331 331 332 334 336 335 333 331 330 330 329 330 330 331 332 331 329 328 327 327 329 330 329
326 322 318 320 322 319 318 318 317 320 330 333 329 332 330 327 329 335 339 338 333 330 332 331 331 332 334 336 339 339 338 339 340 341 341 342 344 344 343 344 346 345 345 346 346 347 347 348 348 344 338 335 339 345 349 348 347 347 345 344 342 335 332 335 338 340 338 335 333 331 331 330 330 330 332 333 332 331 329 330 329 327 328 330 330 330
331 325 319 321 326 322 316 318 323 328 332 331 330 333 332 332 338 342 339 336 334 333 334 333 333 338 340 342 343 342 341 342 343 344 345 344 343 343 344 345 346 345 345 343 343 345 345 346 349 346 340 338 343 347 346 345 346 347 345 345 344 340 340 344 343 339 334 331 330 330 329 329 331 332 333 333 332 330 329 329 328 328 329 329 329 329
332 333 328 328 332 328 323 327 332 334 333 331 330 333 333 332 334 335 335 335 335 332 334 335 335 339 345 347 345 342 342 344 346 346 345 344 343 343 345 346 346 345 345 342 341 343 344 344 346 347 346 346 345 345 344 343 344 346 344 344 344 344 345 343 338 332 330 330 330 330 329 330 331 332 332 331 330 329 328 327 327 328 328 328 327 327
330 333 333 334 334 332 331 333 333 332 331 332 330 331 330 330 331 332 334 336 336 334 334 336 336 340 345 346 344 341 341 344 345 346 345 346 346 347 346 347 346 345 343 343 344 344 343 343 345 346 347 347 345 343 343 342 342 343 343 343 345 344 341 338 334 331 330 329 328 330 331 331 330 330 331 330 328 328 327 327 327 326 327 327 326 326
328 327 331 334 330 327 328 333 332 329 330 331 330 330 329 329 330 332 334 337 338 337 337 338 339 341 344 344 343 342 342 343 346 348 347 347 347 346 346 347 347 345 345 345 344 343 341 342 342 342 343 344 343 343 341 341 341 341 342 343 343 339 336 335 333 331 330 329 329 331 331 328 326 326 328 329 327 327 326 326 326 326 325 325 324 326
329 327 329 331 330 327 329 332 330 328 330 330 329 328 327 327 328 331 332 335 338 337 338 339 341 342 342 342 342 342 340 342 344 346 346 346 347 346 345 346 346 345 345 344 342 341 341 341 340 340 341 342 344 343 339 338 339 339 341 341 337 335 334 333 332 331 330 330 330 330 330 328 326 325 326 327 327 325 325 326 326 325 325 325 325 326
327 327 327 329 329 329 330 331 329 327 330 330 328 326 325 324 327 331 332 333 336 335 337 338 340 340 340 340 341 341 341 341 342 339 338 339 342 342 343 345 345 344 344 344 343 343 345 346 344 343 343 343 342 341 339 339 338 337 338 338 335 334 335 333 332 330 330 329 329 328 327 327 327 326 326 326 325 325 325 326 325 323 324 326 326 325
326 329 329 328 328 327 329 329 329 328 330 330 328 325 324 324 328 332 332 333 334 335 337 339 339 339 339 339 340 341 341 342 341 336 333 336 341 342 343 345 345 344 344 345 345 345 345 345 343 343 342 342 339 338 338 338 337 335 334 334 335 336 335 333 331 329 328 328 328 327 327 327 326 326 326 325 324 324 325 325 323 321 322 325 324 322
325 327 327 326 326 326 326 327 327 327 328 327 326 323 324 326 329 330 331 333 333 335 337 340 339 339 339 339 338 338 338 341 342 337 334 337 341 344 345 344 343 342 342 342 343 343 342 341 340 339 340 339 337 336 336 336 335 334 333 332 333 333 333 332 330 327 327 327 327 326 326 325 325 326 326 326 325 324 325 326 323 320 320 321 321 319
Wind_Speed
6 8 9 8 10 12 13 13 10 6 7 11 12 10 11 10 9 9 6 6 9 7 6 6 4 8 11 12 11 11 11 9 8 9 8 8 8 8 9 9 9 8 8 9 9 9 9 9 9 9 8 7 7 7 7 7 7 7 7 7 7 6 6 6 4 4 6 10 11 10 10 9 7 7 8 8 7 7 4 4 5 7 9 11 13 10
6 9 11 12 11 10 11 10 6 4 6 9 10 9 9 9 7 9 8 7 8 7 5 6 6 8 11 11 11 10 11 10 9 10 10 10 10 8 9 10 9 8 7 8 8 9 9 9 10 10 9 8 8 8 8 7 7 6 6 6 6 5 5 5 4 4 6 9 9 7 7 7 7 7 7 9 8 8 8 6 4 5 8 10 12 10
9 10 13 14 7 5 6 7 8 8 8 9 9 8 8 6 4 7 9 7 8 6 4 8 8 8 10 9 10 10 10 9 9 9 9 10 10 9 9 9 9 8 7 7 7 8 9 9 10 9 9 9 8 8 8 7 6 5 5 5 4 4 4 3 4 5 5 6 5 4 5 5 6 7 6 9 10 9 10 9 7 7 9 10 12 12
9 11 12 11 7 7 8 8 10 9 8 9 8 8 7 8 7 6 8 9 8 6 5 7 8 6 9 8 9 9 8 8 8 8 8 8 9 10 10 9 9 9 8 7 7 8 9 9 10 10 9 9 8 7 7 6 5 4 4 4 3 2 1 1 1 1 1 3 2 4 6 5 7 8 7 8 9 8 10 10 8 9 10 11 11 12
9 8 9 10 9 12 11 10 11 9 8 9 9 9 7 9 12 9 8 11 8 7 6 8 8 5 8 10 10 9 7 8 9 9 9 8 8 8 9 9 9 9 9 8 8 8 9 10 10 10 9 9 9 7 6 5 4 4 4 4 4 2 2 2 1 3 3 4 4 5 7 7 7 8 8 9 9 9 9 9 9 10 10 10 10 11
7 8 9 10 10 13 12 12 13 11 8 8 10 12 9 6 11 8 11 11 7 7 9 10 8 5 8 11 11 10 9 10 10 11 11 10 10 9 9 9 9 9 9 8 8 9 10 11 10 10 10 9 9 8 6 5 5 5 6 6 5 4 3 3 3 4 4 5 6 7 7 7 7 7 7 8 9 9 8 9 9 9 10 9 10 10
5 7 7 10 11 13 13 12 13 12 9 6 7 8 7 7 7 9 13 11 7 6 8 10 8 5 7 10 12 12 12 13 11 12 13 12 11 11 10 10 10 10 10 9 9 10 11 12 12 11 11 10 10 9 7 6 7 7 7 7 6 5 5 4 4 4 4 4 4 5 5 4 5 6 5 6 7 7 7 8 8 9 9 9 10 10
6 9 8 8 11 14 13 10 11 12 9 1 4 4 5 7 8 11 12 9 5 3 6 10 9 6 5 7 11 14 14 14 14 14 14 13 13 13 13 12 12 11 11 10 10 11 12 13 13 12 12 11 10 10 9 8 8 8 9 8 7 6 5 5 3 3 3 2 2 3 2 2 3 4 5 5 5 6 7 7 8 9 9 9 10 10
9 11 11 12 12 11 8 6 10 9 6 2 5 5 5 6 8 9 9 5 3 3 6 8 7 7 7 4 8 13 14 15 16 17 16 16 15 15 15 15 14 13 12 12 11 12 13 14 13 13 13 12 11 11 10 10 10 10 10 9 8 6 5 4 3 3 3 3 3 3 3 3 3 4 5 6 6 5 6 7 7 8 8 9 9 9
8 6 8 12 11 7 5 8 7 4 2 5 7 8 7 5 5 4 5 3 3 6 8 9 9 7 7 5 7 10 12 14 16 16 17 17 17 16 16 16 15 13 12 12 12 13 15 15 14 14 14 13 12 11 11 11 11 11 10 8 7 5 4 3 3 3 4 3 3 3 3 4 4 5 6 6 6 5 6 7 7 7 7 7 8 8
7 2 2 6 3 6 12 11 5 4 8 11 9 8 7 5 4 2 2 2 4 7 7 8 10 8 8 5 6 8 11 13 13 14 15 17 18 17 16 16 16 14 12 12 13 14 16 16 15 15 15 14 13 13 13 12 11 11 9 8 7 6 5 4 4 3 2 3 3 3 4 5 5 6 6 6 6 6 7 7 7 7 7 7 7 7
8 5 5 3 2 8 13 10 6 8 12 11 7 7 6 4 4 4 3 4 6 6 3 3 7 9 9 6 5 6 9 12 11 11 15 19 20 18 17 16 16 14 13 13 12 13 15 15 15 16 16 15 14 14 14 12 12 11 9 9 8 7 6 5 3 2 1 1 2 3 4 5 5 5 6 6 6 6 7 7 8 8 7 7 8 7
10 8 8 6 4 9 12 9 5 7 10 8 6 7 6 4 5 5 5 5 7 4 3 2 5 8 8 8 10 9 7 9 9 9 12 16 19 19 18 17 15 14 14 14 12 13 14 14 16 18 17 16 16 15 15 13 12 11 10 9 8 8 6 5 3 2 0 1 1 2 4 4 4 5 5 5 5 5 6 7 7 8 8 8 8 8
9 7 9 9 6 8 11 9 7 7 8 9 8 7 6 5 6 7 6 6 7 4 4 3 3 6 8 7 9 9 6 6 8 8 9 10 15 18 18 17 15 15 15 13 13 13 13 15 18 19 17 16 16 16 16 14 13 11 10 10 8 7 6 4 3 1 1 1 1 2 3 3 3 4 4 4 4 5 5 6 7 7 7 7 7 7
9 7 11 11 7 11 12 8 9 9 9 9 8 7 7 6 6 6 5 6 7 4 5 4 3 6 6 1 3 1 2 0 4 7 7 7 9 12 16 17 17 16 15 13 13 14 15 17 19 19 18 17 17 17 16 15 14 12 11 10 8 7 6 4 3 2 1 1 1 2 2 2 2 3 3 3 3 4 5 6 6 6 6 7 7 7
9 7 11 7 5 15 13 4 7 10 8 6 4 6 6 5 5 3 3 4 5 3 4 5 4 6 4 1 4 4 2 3 4 6 8 8 8 9 13 16 17 16 15 14 14 14 16 18 19 19 18 18 18 18 17 15 15 13 11 10 9 7 6 5 5 3 2 1 1 1 2 2 2 2 2 3 3 4 5 6 7 7 6 6 6 7
7 6 12 9 5 11 10 6 7 6 4 6 5 6 1 3 3 3 1 1 3 7 4 4 5 6 5 5 6 5 5 6 7 9 10 10 10 11 11 14 16 16 15 15 14 14 16 18 19 19 19 19 19 19 18 16 15 14 12 11 10 8 7 6 5 4 2 2 2 2 2 2 2 2 2 3 4 5 6 6 7 7 6 6 6 7
7 5 11 12 8 5 4 7 8 1 1 4 6 6 5 3 3 4 4 3 5 7 3 4 8 7 4 3 5 7 6 7 7 9 10 10 11 12 12 12 15 16 16 15 15 15 16 18 19 19 20 20 21 20 18 17 16 14 12 11 9 8 7 6 5 4 3 2 2 2 2 2 2 3 3 3 4 5 6 6 7 7 6 6 7 7
8 5 7 10 9 7 6 8 7 3 3 4 2 7 5 4 5 5 5 5 5 7 4 4 6 6 6 3 3 5 5 4 5 8 10 11 13 13 12 13 15 16 15 15 15 14 15 17 19 20 20 21 21 20 18 18 16 14 12 10 9 7 6 6 5 4 3 3 3 3 3 3 3 3 4 4 4 5 6 6 7 7 7 7 7 8
8 7 5 7 8 9 8 9 8 8 6 3 2 6 6 5 3 4 4 4 5 6 6 3 4 5 5 2 1 2 3 4 4 6 9 11 13 13 12 13 14 15 15 14 15 14 15 18 21 21 21 22 21 20 18 18 16 14 12 11 9 8 7 6 5 4 4 4 4 4 3 4 4 4 4 4 5 5 6 6 7 7 7 7 7 8
5 7 4 6 8 8 9 9 9 9 10 8 7 8 7 4 2 3 4 4 5 5 5 4 5 4 2 4 1 3 3 3 4 5 7 9 11 12 12 13 13 14 15 15 15 15 16 19 22 22 21 21 21 20 19 17 15 13 12 11 10 9 8 7 7 6 5 5 5 5 5 5 5 5 5 5 6 6 6 6 6 7 7 8 8 8
6 6 5 6 8 9 10 8 4 4 7 11 9 9 10 7 5 5 5 4 3 5 5 4 6 5 4 5 3 3 3 4 4 5 6 7 9 11 12 14 14 14 16 16 16 16 16 19 22 22 22 21 20 20 19 16 14 13 12 11 10 9 8 8 7 7 6 6 6 6 6 6 6 6 6 7 7 7 7 7 7 8 8 9 9 9
5 6 7 8 7 5 5 5 2 3 3 7 8 9 10 8 8 8 6 4 4 4 4 4 7 4 5 6 4 2 2 2 2 4 5 5 8 10 12 14 14 14 16 17 17 16 16 20 22 21 21 21 20 20 18 16 14 13 12 11 10 9 9 8 7 8 7 7 7 7 7 7 6 7 7 7 8 7 7 8 8 8 9 10 10 10
3 6 9 7 4 4 5 5 3 1 3 7 8 9 9 9 10 7 3 2 4 4 4 5 7 3 4 4 2 2 1 3 3 4 5 5 6 9 12 13 13 14 15 17 16 14 16 20 21 20 20 20 19 18 18 16 15 14 12 12 11 10 9 8 8 8 8 8 8 8 8 8 7 8 8 8 8 7 8 9 9 9 10 11 12 12
6 7 9 7 6 6 5 5 6 5 6 9 10 11 12 11 9 5 1 2 5 7 7 6 7 3 4 3 2 3 4 5 5 5 5 5 5 7 10 11 13 13 13 16 16 15 17 18 19 19 19 18 18 18 18 17 16 15 13 13 12 10 9 9 9 9 8 8 9 9 9 9 8 8 8 8 8 8 8 9 10 11 11 11 12 13
8 7 8 9 9 10 9 8 9 8 8 10 11 12 14 14 12 8 5 5 6 6 7 7 8 4 3 6 4 4 5 6 6 6 5 5 6 5 7 9 11 12 13 16 16 16 17 16 17 19 19 18 19 18 17 16 16 15 14 13 12 10 9 9 9 9 9 9 9 9 9 9 9 8 8 8 8 8 9 10 11 11 12 12 13 14
5 5 10 11 11 10 9 7 10 11 11 12 15 16 16 17 16 11 8 7 5 4 6 8 9 9 6 4 4 2 4 6 6 7 7 6 7 6 6 8 10 10 12 14 14 15 15 15 16 19 20 19 20 19 17 17 16 15 14 14 13 11 10 10 10 10 10 9 9 9 9 9 9 8 8 8 8 9 10 11 12 12 13 14 14 15
3 6 12 14 14 11 6 4 8 13 14 14 17 17 16 17 16 14 11 7 4 5 7 5 7 11 13 10 8 6 6 8 8 8 8 6 6 7 7 9 10 11 11 13 14 15 16 15 15 17 20 20 20 19 17 16 15 15 14 14 13 12 11 10 11 11 10 10 10 10 10 9 8 8 8 9 9 10 12 13 13 14 14 15 15 16
5 9 11 14 15 10 4 4 7 11 12 13 15 15 16 17 16 16 15 10 6 8 9 2 6 9 12 11 11 9 7 9 10 8 8 6 6 8 9 10 11 12 13 14 15 16 16 16 15 16 19 20 19 19 17 15 14 14 14 14 13 12 12 11 12 12 11 11 11 11 10 9 9 8 8 9 9 11 13 13 13 14 14 15 16 16
5 5 6 10 12 8 5 6 8 10 11 12 14 14 15 17 17 17 15 11 9 11 10 4 4 8 11 12 11 9 7 8 8 8 9 9 9 8 10 11 12 13 14 15 16 16 16 16 16 17 19 19 19 19 17 15 14 14 15 15 14 13 12 12 13 13 12 11 12 11 10 10 9 9 9 10 10 12 13 14 14 13 13 15 16 15
4 3 3 7 9 7 6 7 8 10 11 11 12 12 14 14 14 14 12 8 8 9 8 8 8 9 10 9 6 5 6 6 8 10 12 11 9 8 11 12 13 14 15 15 16 16 16 16 16 17 18 19 19 19 17 15 15 15 16 15 14 13 13 14 14 14 13 12 12 12 11 10 10 11 11 11 12 13 14 14 14 13 14 15 15 14
6 3 3 7 8 6 6 8 9 9 10 11 11 11 13 13 11 10 8 7 8 8 7 8 9 8 6 5 5 7 9 9 12 13 11 9 7 8 11 12 12 13 14 15 16 16 17 17 17 17 19 20 20 19 17 16 16 17 17 15 13 13 13 15 15 14 13 13 13 12 11 11 12 12 12 12 13 14 14 14 14 14 15 15 14 12
6 5 5 7 9 6 8 9 9 9 10 10 10 12 13 12 10 9 8 7 7 7 7 7 7 6 6 6 8 10 11 11 12 10 8 7 7 8 10 10 11 12 13 14 16 17 17 18 19 20 21 21 21 20 18 18 18 18 17 15 14 13 14 15 14 14 13 13 13 12 11 12 12 12 13 13 14 14 15 14 14 14 15 14 12 12
6 8 6 6 7 6 9 9 8 10 10 6 3 7 11 11 11 10 9 8 8 7 7 7 7 7 8 8 9 10 10 10 9 7 7 6 6 7 8 9 10 10 12 14 15 16 16 17 19 21 22 22 22 20 19 19 19 18 17 15 14 15 16 15 14 14 13 13 12 12 12 12 12 13 13 14 14 14 13 13 13 13 14 13 12 12
7 8 6 5 7 5 6 7 10 10 6 2 4 2 3 6 9 10 9 9 9 9 9 9 9 8 8 9 8 8 8 8 8 8 8 7 7 7 7 8 8 9 11 12 14 15 15 16 19 21 22 22 22 21 20 20 19 18 17 16 16 16 16 15 14 14 14 13 12 12 12 12 12 13 13 13 13 13 12 12 12 12 12 12 12 13
6 7 5 5 5 5 6 9 10 5 3 5 5 4 4 3 6 8 8 9 9 9 9 10 9 8 9 8 6 4 5 6 8 8 8 8 8 8 7 6 7 8 10 11 12 14 16 18 20 21 21 21 21 21 20 20 20 18 17 17 17 17 16 15 15 14 14 13 12 12 12 12 12 12 13 13 13 13 12 12 12 12 11 11 12 13
6 6 7 6 5 5 8 10 7 3 3 4 4 5 5 5 6 6 7 7 7 7 8 7 7 8 8 6 3 2 2 5 7 6 6 6 6 6 6 5 5 7 8 9 12 15 17 19 20 21 22 21 21 22 21 20 20 19 18 18 18 17 16 15 15 15 14 13 12 11 11 11 11 12 13 13 12 12 11 11 12 12 11 11 13 13
6 5 5 7 6 6 10 10 8 9 9 7 7 8 8 5 4 4 5 6 6 7 7 5 6 7 6 4 3 2 2 5 7 3 4 4 5 5 5 4 4 6 8 11 13 16 18 18 19 22 24 23 22 22 21 20 21 20 19 19 18 17 16 16 15 15 13 12 12 11 11 10 11 12 12 12 12 12 12 11 11 12 11 11 14 15
8 5 4 7 8 7 9 10 9 9 8 5 6 7 6 4 4 4 5 7 5 6 5 4 5 6 6 4 4 4 4 7 5 2 5 5 5 5 5 4 5 6 9 11 14 16 18 18 20 23 24 22 21 21 21 22 22 21 20 20 19 17 17 17 16 14 13 12 12 11 10 10 10 11 11 11 12 12 10 8 9 11 10 10 12 13
9 7 7 10 10 9 9 10 8 7 3 2 6 8 7 6 5 3 8 5 1 2 2 3 5 6 5 5 4 6 7 6 2 3 5 6 6 5 5 5 5 7 9 11 13 15 17 18 19 20 20 19 20 22 22 22 23 22 21 21 20 19 18 18 16 14 13 12 11 10 9 9 10 11 10 11 11 9 6 5 7 9 9 9 10 9
8 8 8 10 11 10 11 10 8 6 1 6 6 7 8 7 4 7 8 3 2 1 1 3 6 7 5 6 6 6 5 1 3 4 6 7 7 6 5 6 7 7 9 11 13 14 16 17 17 18 18 20 22 22 20 20 21 21 21 20 20 20 18 17 15 14 13 12 9 8 9 9 10 10 10 10 10 7 3 4 7 8 8 8 8 6
7 7 7 9 10 10 9 8 9 7 2 5 3 5 6 5 6 5 3 4 4 3 1 4 8 8 6 7 8 7 4 4 5 5 6 7 7 7 7 7 8 8 9 10 12 13 14 15 16 18 19 22 23 19 16 17 18 18 18 18 20 20 18 16 15 14 11 9 6 6 7 8 9 10 9 10 10 7 4 4 8 10 9 8 6 5
5 6 8 8 8 8 8 8 9 6 2 3 2 4 3 4 4 3 3 3 4 4 4 6 8 8 8 9 9 8 5 5 6 6 7 7 7 8 8 8 8 8 9 10 12 13 13 12 13 17 20 20 18 14 13 15 15 15 15 18 20 19 17 15 13 10 8 7 5 5 7 8 8 9 8 8 8 7 5 6 9 10 10 8 6 6
3 4 7 6 3 6 8 6 3 1 4 2 2 1 1 3 4 4 5 6 6 6 6 6 7 8 9 8 7 7 6 5 6 7 8 8 9 9 8 8 8 8 9 10 11 13 12 11 11 13 15 14 11 10 12 14 13 13 15 17 18 16 13 12 11 9 7 6 5 5 6 7 7 7 7 7 7 7 7 8 9 10 8 8 8 8
1 2 3 2 1 3 3 1 3 3 3 2 3 3 5 7 7 7 8 8 8 8 6 6 8 8 6 6 7 7 7 6 7 8 8 9 9 9 8 8 8 8 8 8 9 10 10 9 8 7 7 7 7 7 10 12 12 13 16 18 16 13 12 12 11 9 7 6 5 5 5 6 5 4 5 5 6 7 7 8 9 10 9 9 10 9
3 2 2 2 1 1 0 3 3 1 2 2 2 3 6 7 7 7 8 8 9 9 8 8 9 8 6 7 7 8 8 7 7 8 8 8 8 8 8 8 8 8 8 8 7 7 6 5 5 5 5 5 5 6 8 10 11 13 16 16 14 13 13 12 11 9 8 6 5 4 3 4 3 3 3 4 6 7 7 8 9 9 9 9 11 10
3 2 3 1 1 2 3 2 3 3 3 4 4 4 6 8 8 8 8 8 8 10 10 9 9 8 6 7 9 9 9 9 8 8 7 7 7 8 8 8 8 8 8 7 7 5 3 3 3 5 5 5 5 6 7 8 10 12 12 12 11 12 12 11 10 8 7 5 4 4 3 1 1 3 4 5 6 7 8 8 9 10 10 11 12 11
2 3 3 3 2 2 1 3 5 5 1 5 5 6 7 10 12 11 10 9 9 10 10 8 7 7 6 8 9 9 9 9 9 8 7 7 7 7 7 7 7 7 7 7 6 4 3 3 3 3 2 2 1 2 4 5 7 8 8 8 9 9 10 9 8 7 5 4 4 4 3 2 2 3 5 6 6 8 10 8 8 10 12 12 11 9
1 2 1 2 3 4 3 2 7 6 6 5 6 9 9 11 13 13 12 11 10 10 9 8 7 6 6 7 8 8 8 8 8 8 9 8 7 7 7 7 8 8 7 7 7 5 4 3 2 3 3 3 2 1 1 2 3 4 4 5 5 7 8 8 7 4 3 3 5 5 5 5 5 6 6 7 8 9 9 8 9 11 12 11 10 10
3 4 1 3 6 5 1 3 6 4 5 2 7 11 12 13 13 13 12 11 11 10 8 7 6 5 5 6 7 7 7 7 5 6 8 8 8 8 9 9 8 9 8 8 7 7 7 6 5 5 4 4 3 2 1 1 1 3 3 3 4 6 7 8 7 3 3 5 6 7 7 6 7 7 6 8 9 8 6 7 10 13 11 8 9 10
2 2 2 3 5 3 4 6 5 3 6 7 9 11 12 11 11 12 12 11 11 10 8 7 7 7 7 5 6 7 7 7 5 5 7 8 8 8 9 8 8 8 8 7 7 7 7 6 6 5 4 4 3 2 2 2 2 2 3 3 4 5 6 7 7 4 6 7 6 6 6 8 9 8 7 7 7 7 6 4 5 7 6 5 6 5
Wind_Direction
201 199 198 202 193 192 198 209 231 238 198 195 200 199 193 195 193 185 177 168 187 211 201 199 186 157 157 153 157 158 158 177 178 168 174 173 174 177 181 185 182 185 180 168 174 183 190 197 200 203 204 199 195 188 185 187 190 196 201 204 206 205 215 224 230 235 242 265 283 291 290 293 302 308 319 321 320 328 318 305 329 347 350 345 339 331
208 213 202 203 201 191 196 207 222 236 210 202 205 205 206 210 189 174 182 172 186 218 192 185 201 169 160 156 155 162 166 175 180 177 180 177 178 180 183 185 184 188 181 173 183 191 195 197 196 199 199 196 196 192 192 192 191 197 203 210 214 213 218 232 250 247 253 273 280 278 275 290 313 316 322 325 323 326 325 321 324 326 325 330 329 319
200 216 208 199 184 138 168 199 207 213 211 208 206 208 213 202 157 157 178 177 180 215 197 186 204 170 158 160 159 173 176 169 177 183 183 181 180 184 187 188 187 189 189 191 196 192 191 192 191 194 196 196 194 190 190 191 195 198 198 205 212 216 222 247 254 243 256 269 271 291 284 285 316 320 321 326 328 331 335 334 335 334 326 322 320 317
198 213 203 177 150 159 175 189 205 215 214 216 208 211 214 177 176 192 181 179 184 213 220 194 203 173 159 170 169 180 180 165 172 180 187 193 192 192 192 192 193 192 194 199 200 192 184 183 185 189 192 191 187 185 186 186 192 192 183 180 181 192 185 174 239 233 311 285 273 308 305 313 331 334 341 345 344 345 345 339 335 336 330 322 316 314
196 177 158 150 164 187 188 186 201 214 208 217 219 226 231 186 208 229 172 168 183 207 220 200 201 190 180 189 182 180 183 176 177 182 192 200 204 206 201 198 199 198 197 198 199 190 179 178 180 182 185 184 182 183 183 178 174 167 155 149 150 142 121 118 69 32 7 345 348 340 337 346 350 350 355 358 353 348 346 338 332 333 330 324 316 310
173 123 133 158 177 191 196 195 203 216 209 204 214 231 256 239 231 218 159 165 194 203 205 204 214 210 194 201 193 180 186 189 185 189 196 198 201 209 210 207 204 201 198 196 196 188 180 179 175 176 181 180 179 179 174 163 154 147 139 133 134 128 116 102 68 37 14 4 3 359 356 354 352 353 356 356 349 348 348 340 335 335 335 334 326 314
141 125 157 174 180 190 202 202 196 212 224 197 192 214 249 255 225 185 169 187 218 207 192 205 230 233 195 203 200 189 191 194 193 200 203 198 198 205 210 209 204 200 196 194 195 189 182 178 175 177 179 180 179 170 158 153 149 142 138 136 133 126 115 99 79 52 26 17 13 10 5 358 358 355 357 356 350 350 350 345 343 341 340 343 339 329
154 159 175 183 191 193 204 205 186 209 235 183 106 163 203 216 195 183 192 206 213 176 180 202 223 242 228 213 200 195 197 198 198 204 207 203 201 204 207 207 204 200 194 191 192 189 184 181 179 178 177 180 175 161 157 159 152 146 142 138 134 127 117 107 91 75 62 58 58 44 32 25 20 11 2 356 356 358 354 350 350 347 344 347 348 344
167 179 177 182 194 195 200 175 157 195 236 65 85 130 155 188 188 189 201 202 181 194 207 203 209 240 244 212 191 198 203 207 208 207 207 206 204 203 205 206 204 200 196 194 192 189 186 183 182 180 177 176 168 159 162 159 151 146 142 137 134 129 121 117 113 113 112 103 94 76 56 42 27 16 1 351 355 1 357 353 352 349 346 347 349 349
161 188 184 192 197 178 115 93 119 171 178 112 113 116 117 142 165 187 211 196 192 222 228 203 199 241 251 201 185 204 212 214 212 210 208 205 204 204 205 205 204 200 197 197 195 192 189 187 187 183 176 171 166 161 158 153 150 147 143 143 142 139 139 143 142 135 122 101 87 74 54 36 18 7 355 350 355 357 354 350 347 345 343 342 343 344
131 109 194 214 205 121 100 85 78 90 126 140 134 123 121 127 137 180 214 197 216 228 230 202 196 231 262 231 192 203 220 224 217 211 208 205 205 204 203 204 202 199 196 195 196 195 194 190 184 180 175 170 164 159 155 153 152 149 148 154 155 157 161 158 152 138 112 85 70 56 33 20 10 359 351 349 349 349 349 346 343 340 335 335 335 337
148 154 164 168 124 124 113 97 89 115 141 156 154 152 146 134 161 186 174 197 235 229 201 186 202 223 249 260 235 212 217 227 228 217 207 205 205 203 201 203 200 197 196 192 192 194 193 185 178 180 177 168 161 158 160 159 156 156 161 167 168 170 168 161 157 143 106 70 57 39 18 11 4 355 350 347 345 349 347 342 341 336 328 328 327 331
169 160 139 133 157 160 139 120 116 141 165 180 177 178 183 174 185 204 193 208 239 222 129 147 213 229 246 256 260 264 241 222 226 229 217 207 204 200 198 200 197 195 195 191 188 190 190 184 181 183 177 167 164 163 165 166 164 167 173 178 177 171 167 163 161 159 144 26 35 21 5 2 358 351 346 343 342 345 343 337 335 331 325 323 322 325
165 144 143 151 166 186 179 166 161 168 187 197 191 194 208 199 201 222 215 224 245 215 129 128 203 247 262 250 247 266 274 235 220 225 227 215 209 203 197 197 196 194 195 192 187 186 189 189 186 182 174 169 169 168 170 171 169 173 179 184 183 173 169 169 171 188 269 316 350 355 352 352 350 345 340 338 339 340 338 331 325 324 318 314 317 320
178 167 172 170 162 185 194 189 183 182 190 201 200 207 224 224 225 235 229 236 246 202 138 140 196 244 262 206 165 205 23 319 223 219 223 219 215 210 200 197 195 193 192 189 187 187 187 188 185 179 175 173 172 173 176 173 170 177 184 186 185 179 178 183 189 199 237 279 300 320 328 338 340 340 337 329 333 332 328 323 315 313 311 310 313 313
198 178 159 145 146 182 188 179 188 194 190 190 203 219 233 245 231 247 312 294 289 273 191 183 218 245 263 234 174 181 178 194 206 212 218 218 215 212 207 202 196 191 190 187 186 186 184 185 184 180 177 177 177 178 179 174 173 182 188 188 187 184 187 193 195 196 212 248 264 281 295 322 324 322 321 312 320 325 320 317 311 306 307 307 308 307
212 160 137 130 135 182 191 162 175 218 194 166 202 214 190 356 257 233 275 279 280 275 237 191 235 241 246 248 204 196 237 230 213 211 215 217 213 210 211 208 201 192 187 185 183 182 182 183 184 182 180 181 182 182 182 176 177 186 190 188 186 186 193 198 198 199 206 230 247 258 268 293 301 295 298 302 317 325 321 319 315 309 306 304 304 304
212 163 143 163 157 150 185 155 150 250 247 189 208 179 118 42 267 244 249 213 228 258 239 194 245 250 232 226 174 181 230 236 216 214 213 211 210 210 209 207 202 193 185 181 180 180 181 182 183 183 183 184 184 184 182 178 180 188 191 188 187 190 199 203 205 212 222 238 252 251 246 255 271 272 274 285 306 319 324 326 326 318 310 304 302 300
212 192 145 175 168 137 167 177 161 165 218 268 237 153 160 225 208 199 242 257 253 270 272 206 230 253 239 218 155 186 233 256 222 208 208 209 207 208 206 199 196 190 182 179 180 180 181 180 182 184 184 184 184 183 181 179 182 189 190 187 189 195 205 212 213 221 237 249 249 243 238 239 243 247 254 271 293 308 317 324 328 325 314 304 299 297
211 221 163 161 162 151 171 198 200 182 177 253 237 175 203 251 229 196 227 271 278 280 287 242 212 235 222 172 98 237 264 280 236 201 206 213 207 206 202 193 190 186 182 180 181 181 180 182 184 186 186 184 182 181 181 182 186 192 190 183 186 196 206 217 221 229 245 251 246 239 233 230 231 236 244 260 279 293 303 311 318 323 319 309 301 297
199 228 202 146 151 171 187 200 216 203 182 196 211 199 197 205 245 245 223 249 274 279 288 274 261 271 118 117 215 263 255 256 241 213 213 214 208 204 197 191 188 185 184 184 184 182 180 182 184 186 186 183 180 181 185 186 190 195 193 187 192 203 213 223 228 235 247 250 244 240 237 234 234 237 246 260 273 282 288 293 300 312 317 312 307 302
193 212 204 162 170 201 199 185 222 255 201 199 207 208 204 196 210 237 223 205 230 265 278 283 282 293 95 129 204 246 242 231 228 228 220 209 206 200 192 191 188 186 187 187 188 186 180 180 183 186 187 183 180 184 188 187 189 194 196 200 208 217 228 236 234 234 242 245 241 238 237 238 239 242 250 262 271 278 283 289 295 301 306 307 306 303
200 212 215 197 186 187 149 121 57 329 247 220 221 223 219 206 213 237 242 196 190 237 261 273 280 283 110 132 181 202 264 260 249 261 247 214 201 194 191 191 187 187 190 189 190 188 180 179 182 183 183 179 178 184 186 184 189 195 199 207 217 225 235 243 239 234 237 239 240 237 235 237 241 246 252 261 270 279 287 294 299 299 300 302 303 301
185 214 220 211 169 127 108 110 135 195 235 227 223 230 236 227 227 245 267 184 204 226 230 249 266 262 108 113 148 146 226 260 246 258 260 236 205 190 191 190 186 188 191 189 191 186 178 177 177 176 175 172 173 180 182 183 189 194 199 211 222 226 231 238 240 239 239 240 241 237 235 238 241 246 252 260 270 279 287 299 308 309 305 303 302 300
188 208 210 209 194 180 175 174 177 184 212 225 222 221 231 234 234 237 161 177 234 240 238 257 276 271 114 124 176 162 195 231 230 235 246 242 228 200 191 189 185 185 185 185 185 180 176 175 171 168 168 168 171 177 179 181 185 189 196 212 225 230 228 230 236 241 243 246 246 240 238 242 244 248 254 260 271 281 292 305 313 312 309 305 301 299
194 202 200 212 212 201 206 209 202 197 203 222 227 216 214 219 220 218 210 220 235 231 225 245 273 290 120 148 178 174 194 224 234 240 236 229 234 220 197 191 187 184 183 181 179 176 175 174 167 163 164 168 173 177 179 179 182 188 195 209 224 230 227 228 234 241 246 251 252 245 244 247 247 251 257 262 272 283 292 301 305 307 309 309 306 301
198 202 202 220 229 221 224 216 206 211 209 211 215 209 207 213 215 217 232 239 219 195 218 227 247 274 270 225 230 245 244 251 253 254 246 225 219 215 202 196 191 189 185 179 177 176 175 173 166 161 165 171 175 178 179 180 184 188 193 206 219 222 222 226 231 236 243 252 254 250 250 252 250 254 262 268 274 282 289 294 301 308 310 308 305 302
199 211 206 219 231 236 244 205 195 218 225 218 215 212 208 209 210 215 229 231 183 210 247 213 203 254 271 277 291 297 279 275 275 271 270 251 221 209 202 198 196 194 188 181 180 180 177 174 167 163 166 171 174 176 177 181 184 187 194 206 215 218 220 224 227 232 239 247 250 250 253 256 253 256 263 268 274 282 285 291 301 307 305 303 302 301
223 219 206 215 224 224 226 200 202 224 233 230 225 215 205 202 205 214 225 222 209 245 268 173 165 243 271 287 297 300 292 285 284 286 290 280 246 219 205 201 200 196 190 186 185 184 181 175 169 165 166 169 172 173 174 178 180 185 197 208 212 216 221 222 224 230 237 242 245 249 255 255 252 256 262 267 275 282 285 294 303 302 300 302 301 300
241 218 193 217 221 206 194 201 211 222 227 231 228 214 202 201 204 213 224 224 227 251 267 253 220 256 278 289 293 296 294 287 287 289 282 272 257 232 212 208 205 198 194 192 189 188 184 176 170 165 164 168 171 171 173 175 178 189 204 211 212 216 220 221 223 227 234 239 243 250 255 252 250 256 263 270 278 283 289 301 304 298 300 305 302 299
222 214 184 211 214 195 184 190 202 216 218 217 216 205 198 200 202 213 226 220 219 242 259 265 267 269 277 282 280 283 286 277 270 270 269 270 267 246 229 220 212 204 200 195 190 187 184 178 172 165 163 168 170 170 174 177 183 199 211 215 217 218 219 220 222 225 231 238 243 249 254 253 252 258 266 273 279 282 292 302 301 299 304 306 302 300
202 206 171 203 217 197 177 188 192 201 209 205 200 193 191 196 202 213 219 208 217 237 245 255 263 269 284 297 290 289 288 274 263 261 262 271 275 259 245 234 222 212 204 196 191 188 184 179 175 169 166 169 170 172 176 180 190 204 212 215 219 222 222 220 221 226 231 236 243 249 253 255 256 261 270 277 280 283 293 301 299 302 307 304 302 302
199 201 179 207 227 190 169 191 188 188 210 213 200 195 197 203 211 215 214 210 221 240 248 254 266 291 320 315 294 288 288 283 276 269 265 273 277 265 252 242 233 220 207 198 192 187 185 182 177 171 167 168 171 175 180 187 197 206 210 212 216 221 223 221 222 227 232 237 245 250 255 259 260 266 272 278 282 284 292 300 302 307 310 306 302 302
201 218 206 210 234 192 163 178 194 209 225 227 197 204 208 213 219 222 225 219 211 221 244 265 280 293 299 289 278 280 289 295 293 280 266 263 259 256 251 243 237 224 209 202 195 189 189 183 173 167 165 167 173 179 186 195 202 206 209 211 215 219 221 221 223 228 232 239 246 250 256 261 264 270 274 278 282 283 288 298 303 307 311 309 305 303
204 219 214 211 234 214 158 180 219 233 229 145 92 120 188 213 223 231 237 227 218 223 237 256 269 274 277 276 275 282 291 299 294 277 260 246 235 242 247 240 233 222 211 204 197 192 189 176 165 161 162 168 175 182 190 198 203 207 209 211 215 217 218 220 224 227 232 239 247 251 257 264 269 274 276 278 279 279 283 293 299 304 310 310 309 307
223 219 213 214 222 205 188 212 230 234 126 120 118 103 99 151 200 220 234 228 225 231 237 251 267 271 272 274 277 282 288 293 286 266 244 234 230 233 241 236 223 216 210 203 197 191 180 169 161 156 154 162 174 184 193 200 205 209 210 211 215 217 217 220 224 227 231 239 247 254 260 266 273 277 278 278 276 275 281 290 296 301 304 304 307 310
244 229 216 216 214 216 225 228 230 215 159 154 159 164 176 189 191 214 249 245 230 238 250 261 267 265 270 274 266 258 277 281 272 242 207 214 221 223 235 232 209 205 202 195 191 182 171 165 159 152 151 161 177 189 197 202 206 208 211 213 215 217 218 220 222 225 231 239 249 258 263 267 275 280 280 279 276 275 280 287 293 298 302 306 309 307
229 235 225 218 211 224 240 238 235 240 237 227 213 195 194 206 189 197 262 263 237 240 258 265 255 252 257 253 223 195 220 256 255 206 151 175 188 194 212 212 191 187 183 182 181 172 165 162 157 155 162 173 184 193 201 205 205 206 210 214 217 219 220 220 222 225 232 242 251 258 263 266 272 278 279 277 274 275 281 287 295 302 308 314 313 309
209 220 227 227 219 221 239 242 236 245 253 238 194 167 166 172 134 140 252 260 234 226 237 239 241 247 248 235 201 182 217 253 258 139 133 162 167 167 180 176 163 163 166 172 173 165 162 160 157 162 172 181 189 197 202 204 205 206 210 214 219 222 221 220 222 224 232 245 253 259 264 266 270 275 276 274 273 276 283 289 297 302 304 309 311 316
203 206 212 229 231 224 233 244 246 251 264 108 122 129 136 140 129 203 254 257 158 155 214 234 247 252 244 227 198 200 233 267 327 99 139 154 145 145 156 155 151 152 158 165 165 160 159 157 158 168 179 187 197 204 204 202 204 207 211 214 219 223 222 220 220 223 233 246 253 257 262 264 268 271 272 276 279 279 279 282 285 287 287 287 291 303
205 211 219 232 234 225 227 241 248 244 115 89 113 130 130 139 187 246 261 297 4 314 226 253 267 269 244 214 207 224 240 256 85 127 147 141 132 136 143 142 143 148 155 159 157 157 161 164 170 178 187 197 207 209 204 200 201 206 211 215 220 222 220 219 223 229 237 243 245 253 259 262 266 268 271 279 280 268 243 257 269 267 267 271 271 277
213 215 220 230 236 233 230 238 246 240 109 79 114 134 135 196 245 264 316 345 325 302 294 268 274 277 253 220 223 241 230 144 142 157 146 134 134 138 141 140 143 151 155 154 155 160 167 174 182 190 198 207 212 209 200 196 199 203 209 216 222 221 220 223 229 230 228 224 227 248 261 265 268 270 266 262 255 242 224 237 254 260 262 261 257 263
215 221 224 226 236 239 232 234 245 244 92 80 143 142 162 247 285 4 355 323 331 342 327 286 276 277 262 235 227 232 213 161 156 153 140 138 142 142 142 141 142 150 155 158 164 171 177 181 187 198 209 214 211 201 192 195 199 201 207 218 224 223 220 219 214 202 194 200 216 245 263 269 270 269 262 249 241 239 239 241 250 259 262 257 260 273
194 235 242 229 219 240 243 238 230 111 67 37 295 269 277 302 346 351 313 312 328 327 314 295 284 279 269 252 229 212 196 171 161 150 141 144 149 147 144 142 143 151 164 176 179 180 186 192 194 204 213 211 197 187 192 201 204 203 211 222 225 219 206 194 183 176 182 206 225 243 262 269 266 262 259 251 238 233 238 247 255 259 256 256 269 277
117 354 287 252 190 243 276 18 83 90 55 359 327 340 334 328 335 323 305 303 299 290 286 287 286 278 262 250 230 202 187 178 170 159 147 144 148 148 145 145 147 149 159 170 170 172 188 200 200 202 200 185 176 185 199 207 209 209 217 225 222 207 187 173 171 179 194 213 229 242 255 260 260 263 267 259 241 234 241 255 260 256 255 266 276 278
55 28 290 275 160 196 10 56 64 39 18 33 37 16 349 335 337 331 311 295 287 283 276 273 278 274 248 229 218 199 186 175 163 152 144 139 141 142 141 142 143 142 143 140 135 145 173 191 195 198 194 188 200 213 215 218 222 226 230 226 211 193 180 172 171 182 196 213 228 228 229 243 263 289 289 266 248 244 249 257 259 256 254 265 276 278
82 341 280 226 167 229 227 112 41 353 20 58 56 38 12 350 344 337 313 293 288 289 283 275 271 265 241 218 208 193 180 169 154 140 139 141 139 138 140 139 135 131 129 124 119 125 147 176 208 222 229 232 228 229 233 235 237 241 241 229 206 184 171 168 173 184 196 206 202 184 173 180 296 305 288 270 261 266 266 258 256 261 263 266 273 276
85 310 274 193 191 252 196 81 11 324 200 112 59 30 16 354 341 333 317 298 286 283 282 277 263 242 216 204 199 187 174 165 154 145 145 143 135 133 134 129 124 118 112 113 121 133 149 179 214 236 256 256 219 231 255 255 250 247 240 229 214 186 166 167 173 179 188 187 174 169 167 173 227 263 270 268 270 280 278 262 250 263 274 276 275 275
174 243 241 196 225 234 188 66 354 301 203 147 39 12 3 347 335 329 320 307 291 279 273 263 247 228 207 193 186 179 166 152 151 159 159 147 136 133 127 119 118 120 118 120 128 131 124 115 97 75 69 73 74 60 279 259 260 245 219 209 198 172 162 158 150 147 175 181 179 192 208 230 246 252 265 276 276 275 273 263 258 267 276 276 268 267
237 241 255 240 239 237 203 39 9 313 240 268 356 352 345 340 335 330 324 314 303 292 274 248 222 200 185 177 171 166 145 125 142 183 175 149 134 127 123 123 123 121 119 119 117 109 96 85 81 83 90 93 86 83 115 135 219 235 216 194 164 153 152 143 133 149 227 218 217 226 233 255 270 265 267 281 284 277 263 256 261 267 268 262 260 264
279 312 347 290 267 292 25 34 27 336 300 311 329 331 330 334 337 336 331 320 308 298 278 245 203 166 156 163 164 158 144 132 153 195 173 139 123 113 111 118 122 119 118 117 110 102 97 93 93 98 100 101 102 108 123 138 164 191 192 173 153 154 156 147 147 191 232 233 238 246 254 274 283 276 266 274 280 276 267 257 265 273 264 247 255 274